This is the latest recevied weather packets stored in our database for station/object SR6NWB-11. If no packets are shown the sender has not sent any weather packets the latest 10 day(s).
| Time | Temp. | Humidity | Pressure | Rain* | Wind** | Luminosity | Snow |
|---|---|---|---|---|---|---|---|
| 1777553661 | 10° C | 30% | 1031.4 hPa | 0 mm | - | - | - |
| 1777552536 | 10° C | 29% | 1031.7 hPa | 0 mm | - | - | - |
| 1777551456 | 9.44° C | 31% | 1031.7 hPa | 0 mm | - | - | - |
| 1777550446 | 9.44° C | 29% | 1031.9 hPa | 0 mm | - | - | - |
| 1777548241 | 9.44° C | 29% | 1031.9 hPa | 0 mm | - | - | - |
| 1777547641 | 9.44° C | 28% | 1031.9 hPa | 0 mm | - | - | - |
| 1777546046 | 8.89° C | 28% | 1032 hPa | 0 mm | - | - | - |
| 1777545486 | 8.89° C | 28% | 1032 hPa | 0 mm | - | - | - |
| 1777544926 | 8.33° C | 28% | 1032 hPa | 0 mm | - | - | - |
| 1777544381 | 8.89° C | 27% | 1032.2 hPa | 0 mm | - | - | - |
| 1777543881 | 8.33° C | 26% | 1032.2 hPa | 0 mm | - | - | - |
| 1777541666 | 7.78° C | 28% | 1032.4 hPa | 0 mm | - | - | - |
| 1777541101 | 7.78° C | 29% | 1032.3 hPa | 0 mm | - | - | - |
| 1777540536 | 7.78° C | 29% | 1032.5 hPa | 0 mm | - | - | - |
| 1777539946 | 7.78° C | 30% | 1032.5 hPa | 0 mm | - | - | - |
| 1777539436 | 7.78° C | 31% | 1032.5 hPa | 0 mm | - | - | - |
| 1777538246 | 6.67° C | 32% | 1032.5 hPa | 0 mm | - | - | - |
| 1777537761 | 6.67° C | 32% | 1032.5 hPa | 0 mm | - | - | - |
| 1777537246 | 6.67° C | 32% | 1032.5 hPa | 0 mm | - | - | - |
| 1777536761 | 6.11° C | 34% | 1032.6 hPa | 0 mm | - | - | - |
| 1777536241 | 6.11° C | 33% | 1032.4 hPa | 0 mm | - | - | - |
| 1777535671 | 6.11° C | 34% | 1032.4 hPa | 0 mm | - | - | - |
| 1777535151 | 5.56° C | 34% | 1032.5 hPa | 0 mm | - | - | - |
| 1777534636 | 5.56° C | 34% | 1032.3 hPa | 0 mm | - | - | - |
| 1777534083 | 5.56° C | 35% | 1032.3 hPa | 0 mm | - | - | - |
* Rain latest hour (hover to see other rain measurements)
** Current wind speed in m/s (hover to see current wind gust speed)